PIMOHWEATHER Station Historical Data
Daily Summary for January 26, 2020 Units:  Metric    English   Both
Daily Weekly Monthly Yearly
  High: Low: Average:
Temperature: 33.0 °C 24.0 °C 28.3 °C
Dew Point: 26.0 °C 23.0 °C 24.9 °C
Humidity: 92% 69% 83%
Wind Speed: 18km/h 0km/h 6.7km/h
Wind Gust: 20km/h - -
Wind- - SSW
Pressure: 1012.3 hPa 1007.1 hPa -
Precipitation: 0.00 mm    
 
 
Tabular Data for January 26, 2020
Time Temperature Dew Point Pressure Wind Wind Speed Wind Gust Humidity Rainfall Rate (Hourly) solar
00:04 26.0 °C 24.0 °C 1011.1 hPa NW 7 km/h 12 km/h 90% 0.00 mm 0.00 W/m2
00:09 26.0 °C 24.0 °C 1011.1 hPa NW 5 km/h 12 km/h 89% 0.00 mm 0.00 W/m2
00:14 26.0 °C 24.0 °C 1010.9 hPa NNW 3 km/h 4 km/h 89% 0.00 mm 0.00 W/m2
00:19 26.0 °C 24.0 °C 1010.9 hPa NNW 5 km/h 8 km/h 89% 0.00 mm 0.00 W/m2
00:24 26.0 °C 24.0 °C 1010.9 hPa NW 5 km/h 8 km/h 89% 0.00 mm 0.00 W/m2
00:29 26.0 °C 24.0 °C 1010.9 hPa NW 8 km/h 12 km/h 89% 0.00 mm 0.00 W/m2
00:34 26.0 °C 24.0 °C 1010.9 hPa North 5 km/h 8 km/h 89% 0.00 mm 0.00 W/m2
00:39 26.0 °C 24.0 °C 1010.9 hPa North 6 km/h 8 km/h 89% 0.00 mm 0.00 W/m2
00:44 26.0 °C 24.0 °C 1010.9 hPa North 5 km/h 8 km/h 89% 0.00 mm 0.00 W/m2
00:49 26.0 °C 24.0 °C 1010.9 hPa North 5 km/h 12 km/h 89% 0.00 mm 0.00 W/m2
00:54 26.0 °C 24.0 °C 1010.9 hPa North 8 km/h 8 km/h 89% 0.00 mm 0.00 W/m2
00:59 26.0 °C 24.0 °C 1010.6 hPa North 5 km/h 8 km/h 89% 0.00 mm 0.00 W/m2
01:04 26.0 °C 24.0 °C 1010.6 hPa NNW 5 km/h 8 km/h 89% 0.00 mm 0.00 W/m2
01:09 26.0 °C 24.0 °C 1010.8 hPa NNW 6 km/h 8 km/h 89% 0.00 mm 0.00 W/m2
01:14 26.0 °C 24.0 °C 1010.6 hPa NNW 6 km/h 8 km/h 88% 0.00 mm 0.00 W/m2
01:19 26.0 °C 24.0 °C 1010.6 hPa NNW 6 km/h 8 km/h 88% 0.00 mm 0.00 W/m2
01:24 26.0 °C 24.0 °C 1010.6 hPa NW 5 km/h 8 km/h 88% 0.00 mm 0.00 W/m2
01:29 26.0 °C 24.0 °C 1010.6 hPa NNW 5 km/h 8 km/h 88% 0.00 mm 0.00 W/m2
01:34 26.0 °C 24.0 °C 1010.3 hPa WNW 2 km/h 4 km/h 88% 0.00 mm 0.00 W/m2
01:39 26.0 °C 24.0 °C 1010.3 hPa NW 2 km/h 4 km/h 89% 0.00 mm 0.00 W/m2
01:44 26.0 °C 24.0 °C 1010.3 hPa NW 5 km/h 8 km/h 89% 0.00 mm 0.00 W/m2
01:49 26.0 °C 24.0 °C 1010.3 hPa NW 4 km/h 8 km/h 89% 0.00 mm 0.00 W/m2
01:54 26.0 °C 24.0 °C 1010.3 hPa NW 5 km/h 8 km/h 89% 0.00 mm 0.00 W/m2
01:59 26.0 °C 24.0 °C 1010.1 hPa NW 5 km/h 8 km/h 89% 0.00 mm 0.00 W/m2
02:04 26.0 °C 24.0 °C 1009.9 hPa NNW 4 km/h 4 km/h 89% 0.00 mm 0.00 W/m2
02:09 26.0 °C 24.0 °C 1009.9 hPa NW 5 km/h 8 km/h 89% 0.00 mm 0.00 W/m2
02:14 26.0 °C 24.0 °C 1009.9 hPa NNW 5 km/h 8 km/h 90% 0.00 mm 0.00 W/m2
02:19 26.0 °C 24.0 °C 1009.9 hPa NW 6 km/h 8 km/h 90% 0.00 mm 0.00 W/m2
02:24 26.0 °C 24.0 °C 1009.9 hPa NW 6 km/h 8 km/h 90% 0.00 mm 0.00 W/m2
02:29 26.0 °C 24.0 °C 1009.9 hPa WNW 6 km/h 8 km/h 90% 0.00 mm 0.00 W/m2
02:34 26.0 °C 24.0 °C 1009.9 hPa WNW 6 km/h 8 km/h 90% 0.00 mm 0.00 W/m2
02:39 26.0 °C 24.0 °C 1009.9 hPa NW 4 km/h 8 km/h 91% 0.00 mm 0.00 W/m2
02:44 26.0 °C 24.0 °C 1009.9 hPa NW 5 km/h 8 km/h 91% 0.00 mm 0.00 W/m2
02:49 26.0 °C 24.0 °C 1009.9 hPa NW 5 km/h 8 km/h 91% 0.00 mm 0.00 W/m2
02:54 26.0 °C 24.0 °C 1009.8 hPa NW 5 km/h 8 km/h 91% 0.00 mm 0.00 W/m2
02:59 26.0 °C 24.0 °C 1009.7 hPa NW 5 km/h 8 km/h 91% 0.00 mm 0.00 W/m2
03:04 26.0 °C 24.0 °C 1009.8 hPa Calm     91% 0.00 mm 0.00 W/m2
03:09 26.0 °C 24.0 °C 1009.6 hPa NW 2 km/h 4 km/h 91% 0.00 mm 0.00 W/m2
03:14 26.0 °C 24.0 °C 1009.6 hPa Calm     91% 0.00 mm 0.00 W/m2
03:19 26.0 °C 24.0 °C 1009.7 hPa Calm     91% 0.00 mm 0.00 W/m2
03:24 25.0 °C 24.0 °C 1009.9 hPa Calm     92% 0.00 mm 0.00 W/m2
03:29 25.0 °C 24.0 °C 1009.6 hPa North 4 km/h 4 km/h 92% 0.00 mm 0.00 W/m2
03:34 25.0 °C 24.0 °C 1009.8 hPa NNW 5 km/h 8 km/h 92% 0.00 mm 0.00 W/m2
03:39 25.0 °C 24.0 °C 1009.6 hPa NNW 8 km/h 12 km/h 91% 0.00 mm 0.00 W/m2
03:44 25.0 °C 24.0 °C 1009.6 hPa NNW 10 km/h 12 km/h 91% 0.00 mm 0.00 W/m2
03:49 25.0 °C 24.0 °C 1009.4 hPa North 10 km/h 12 km/h 90% 0.00 mm 0.00 W/m2
03:54 25.0 °C 24.0 °C 1009.6 hPa North 7 km/h 12 km/h 90% 0.00 mm 0.00 W/m2
03:59 25.0 °C 24.0 °C 1009.6 hPa North 8 km/h 12 km/h 90% 0.00 mm 0.00 W/m2
04:04 25.0 °C 23.0 °C 1009.6 hPa NNW 6 km/h 8 km/h 90% 0.00 mm 0.00 W/m2
04:09 25.0 °C 23.0 °C 1009.6 hPa NNW 7 km/h 8 km/h 90% 0.00 mm 0.00 W/m2
04:14 25.0 °C 23.0 °C 1009.6 hPa North 5 km/h 8 km/h 90% 0.00 mm 0.00 W/m2
04:19 25.0 °C 23.0 °C 1009.6 hPa North 6 km/h 8 km/h 90% 0.00 mm 0.00 W/m2
04:24 25.0 °C 23.0 °C 1009.6 hPa North 6 km/h 8 km/h 90% 0.00 mm 0.00 W/m2
04:29 25.0 °C 23.0 °C 1009.8 hPa North 4 km/h 8 km/h 90% 0.00 mm 0.00 W/m2
04:34 25.0 °C 23.0 °C 1009.6 hPa NNW 6 km/h 8 km/h 91% 0.00 mm 0.00 W/m2
04:39 25.0 °C 23.0 °C 1009.8 hPa North 5 km/h 8 km/h 91% 0.00 mm 0.00 W/m2
04:44 25.0 °C 23.0 °C 1010.0 hPa Calm     91% 0.00 mm 0.00 W/m2
04:49 25.0 °C 23.0 °C 1009.8 hPa North 4 km/h 4 km/h 91% 0.00 mm 0.00 W/m2
04:54 25.0 °C 23.0 °C 1010.0 hPa North 2 km/h 4 km/h 91% 0.00 mm 0.00 W/m2
04:59 25.0 °C 23.0 °C 1010.0 hPa Calm     91% 0.00 mm 0.00 W/m2
05:04 24.0 °C 23.0 °C 1010.0 hPa Calm     91% 0.00 mm 0.00 W/m2
05:09 25.0 °C 23.0 °C 1010.0 hPa Calm     92% 0.00 mm 0.00 W/m2
05:14 25.0 °C 23.0 °C 1010.0 hPa Calm     91% 0.00 mm 0.00 W/m2
05:19 25.0 °C 23.0 °C 1010.0 hPa Calm     91% 0.00 mm 0.00 W/m2
05:24 25.0 °C 23.0 °C 1010.0 hPa Calm     91% 0.00 mm 0.00 W/m2
05:29 25.0 °C 23.0 °C 1010.2 hPa Calm     90% 0.00 mm 0.00 W/m2
05:34 25.0 °C 23.0 °C 1010.3 hPa Calm     90% 0.00 mm 0.00 W/m2
05:39 25.0 °C 23.0 °C 1010.3 hPa Calm     90% 0.00 mm 0.00 W/m2
05:44 25.0 °C 23.0 °C 1010.3 hPa Calm     90% 0.00 mm 0.00 W/m2
05:49 25.0 °C 23.0 °C 1010.3 hPa Calm     90% 0.00 mm 0.00 W/m2
05:54 25.0 °C 23.0 °C 1010.3 hPa Calm     90% 0.00 mm 0.00 W/m2
05:59 25.0 °C 23.0 °C 1010.3 hPa NNE 2 km/h 4 km/h 90% 0.00 mm 0.00 W/m2
06:04 25.0 °C 23.0 °C 1010.3 hPa NNE 5 km/h 8 km/h 90% 0.00 mm 0.00 W/m2
06:09 25.0 °C 23.0 °C 1010.3 hPa NNE 4 km/h 4 km/h 90% 0.00 mm 0.00 W/m2
06:14 25.0 °C 23.0 °C 1010.3 hPa NNE 2 km/h 4 km/h 90% 0.00 mm 0.00 W/m2
06:19 25.0 °C 23.0 °C 1010.3 hPa North 4 km/h 4 km/h 90% 0.00 mm 0.00 W/m2
06:24 25.0 °C 23.0 °C 1010.3 hPa North 3 km/h 4 km/h 90% 0.00 mm 0.00 W/m2
06:29 25.0 °C 23.0 °C 1010.6 hPa Calm     91% 0.00 mm 2.15 W/m2
06:34 25.0 °C 23.0 °C 1010.6 hPa Calm     91% 0.00 mm 6.80 W/m2
06:39 25.0 °C 23.0 °C 1010.6 hPa Calm     91% 0.00 mm 11.40 W/m2
06:44 25.0 °C 23.0 °C 1010.6 hPa North 4 km/h 4 km/h 91% 0.00 mm 16.57 W/m2
06:49 25.0 °C 23.0 °C 1010.6 hPa North 3 km/h 4 km/h 91% 0.00 mm 21.51 W/m2
06:54 25.0 °C 23.0 °C 1010.6 hPa NNE 3 km/h 4 km/h 91% 0.00 mm 28.23 W/m2
06:59 25.0 °C 23.0 °C 1010.6 hPa North 2 km/h 4 km/h 90% 0.00 mm 31.55 W/m2
07:04 25.0 °C 23.0 °C 1010.8 hPa North 5 km/h 8 km/h 90% 0.00 mm 36.20 W/m2
07:09 25.0 °C 23.0 °C 1011.0 hPa North 4 km/h 4 km/h 90% 0.00 mm 40.08 W/m2
07:14 25.0 °C 23.0 °C 1011.0 hPa North 3 km/h 4 km/h 90% 0.00 mm 44.08 W/m2
07:19 25.0 °C 23.0 °C 1011.1 hPa North 5 km/h 8 km/h 89% 0.00 mm 44.49 W/m2
07:24 25.0 °C 23.0 °C 1011.3 hPa North 3 km/h 8 km/h 89% 0.00 mm 43.70 W/m2
07:29 26.0 °C 24.0 °C 1011.3 hPa NE 3 km/h 4 km/h 88% 0.00 mm 44.20 W/m2
07:34 26.0 °C 24.0 °C 1011.3 hPa Calm     87% 0.00 mm 57.84 W/m2
07:39 27.0 °C 24.0 °C 1011.3 hPa Calm     85% 0.00 mm 60.99 W/m2
07:44 27.0 °C 24.0 °C 1011.4 hPa Calm     82% 0.00 mm 63.53 W/m2
07:49 28.0 °C 24.0 °C 1011.6 hPa NNE 3 km/h 4 km/h 82% 0.00 mm 69.78 W/m2
07:54 28.0 °C 24.0 °C 1011.6 hPa Calm   4 km/h 82% 0.00 mm 76.79 W/m2
07:59 29.0 °C 25.0 °C 1011.6 hPa Calm     80% 0.00 mm 84.38 W/m2
08:04 29.0 °C 25.0 °C 1011.6 hPa ESE 4 km/h 4 km/h 79% 0.00 mm 91.43 W/m2
08:09 29.0 °C 25.0 °C 1011.8 hPa NNW 1 km/h 4 km/h 78% 0.00 mm 98.57 W/m2
08:14 29.0 °C 24.0 °C 1011.9 hPa SW 3 km/h 4 km/h 78% 0.00 mm 100.97 W/m2
08:19 28.0 °C 24.0 °C 1011.9 hPa North 4 km/h 4 km/h 79% 0.00 mm 112.28 W/m2
08:24 29.0 °C 24.0 °C 1011.9 hPa North 1 km/h 4 km/h 80% 0.00 mm 113.62 W/m2
08:29 29.0 °C 25.0 °C 1011.9 hPa South 2 km/h 4 km/h 78% 0.00 mm 121.18 W/m2
08:34 29.0 °C 25.0 °C 1011.9 hPa South 5 km/h 8 km/h 76% 0.00 mm 126.74 W/m2
08:39 29.0 °C 25.0 °C 1011.9 hPa SSE 5 km/h 8 km/h 77% 0.00 mm 144.13 W/m2
08:44 29.0 °C 25.0 °C 1011.9 hPa SSE 7 km/h 8 km/h 77% 0.00 mm 150.69 W/m2
08:49 30.0 °C 25.0 °C 1011.9 hPa SSE 5 km/h 8 km/h 77% 0.00 mm 167.16 W/m2
08:54 30.0 °C 25.0 °C 1012.1 hPa SSE 7 km/h 8 km/h 76% 0.00 mm 183.70 W/m2
08:59 30.0 °C 25.0 °C 1012.3 hPa SSE 6 km/h 8 km/h 77% 0.00 mm 187.12 W/m2
09:04 30.0 °C 25.0 °C 1012.3 hPa South 6 km/h 12 km/h 75% 0.00 mm 210.61 W/m2
09:09 30.0 °C 25.0 °C 1012.3 hPa West 4 km/h 8 km/h 74% 0.00 mm 224.56 W/m2
09:14 30.0 °C 25.0 °C 1012.3 hPa WNW 4 km/h 8 km/h 75% 0.00 mm 230.89 W/m2
09:19 30.0 °C 25.0 °C 1012.1 hPa NW 7 km/h 8 km/h 77% 0.00 mm 232.36 W/m2
09:24 30.0 °C 25.0 °C 1012.1 hPa SSW 4 km/h 8 km/h 77% 0.00 mm 245.16 W/m2
09:29 30.0 °C 25.0 °C 1012.1 hPa NW 6 km/h 8 km/h 74% 0.00 mm 252.57 W/m2
09:34 30.0 °C 25.0 °C 1012.1 hPa NW 8 km/h 12 km/h 76% 0.00 mm 252.20 W/m2
09:39 30.0 °C 25.0 °C 1011.9 hPa NNW 5 km/h 8 km/h 76% 0.00 mm 271.97 W/m2
09:44 30.0 °C 25.0 °C 1012.1 hPa WNW 11 km/h 12 km/h 75% 0.00 mm 270.51 W/m2
09:49 30.0 °C 25.0 °C 1012.0 hPa West 9 km/h 12 km/h 75% 0.00 mm 290.62 W/m2
09:54 31.0 °C 25.0 °C 1012.1 hPa NW 7 km/h 8 km/h 74% 0.00 mm 299.45 W/m2
09:59 31.0 °C 25.0 °C 1011.9 hPa West 13 km/h 16 km/h 73% 0.00 mm 296.42 W/m2
10:04 30.0 °C 25.0 °C 1011.9 hPa NW 10 km/h 16 km/h 74% 0.00 mm 313.62 W/m2
10:09 30.0 °C 25.0 °C 1011.9 hPa NW 11 km/h 12 km/h 76% 0.00 mm 320.81 W/m2
10:14 30.0 °C 25.0 °C 1011.6 hPa SW 8 km/h 12 km/h 75% 0.00 mm 313.59 W/m2
10:19 30.0 °C 25.0 °C 1011.6 hPa WSW 6 km/h 8 km/h 73% 0.00 mm 316.94 W/m2
10:24 31.0 °C 25.0 °C 1011.6 hPa South 9 km/h 12 km/h 72% 0.00 mm 329.89 W/m2
10:29 31.0 °C 25.0 °C 1011.4 hPa SW 7 km/h 12 km/h 72% 0.00 mm 360.40 W/m2
10:34 31.0 °C 25.0 °C 1011.2 hPa SSW 9 km/h 12 km/h 71% 0.00 mm 360.05 W/m2
10:39 32.0 °C 25.0 °C 1011.2 hPa South 6 km/h 12 km/h 70% 0.00 mm 335.37 W/m2
10:44 32.0 °C 25.0 °C 1011.0 hPa South 6 km/h 8 km/h 70% 0.00 mm 317.14 W/m2
10:49 32.0 °C 25.0 °C 1011.1 hPa South 11 km/h 12 km/h 70% 0.00 mm 345.15 W/m2
10:54 32.0 °C 25.0 °C 1010.9 hPa South 9 km/h 12 km/h 70% 0.00 mm 355.36 W/m2
10:59 31.0 °C 25.0 °C 1010.8 hPa South 8 km/h 12 km/h 71% 0.00 mm 373.63 W/m2
11:04 31.0 °C 25.0 °C 1010.7 hPa West 9 km/h 12 km/h 71% 0.00 mm 383.10 W/m2
11:09 31.0 °C 25.0 °C 1010.5 hPa SSW 6 km/h 12 km/h 71% 0.00 mm 380.12 W/m2
11:14 31.0 °C 25.0 °C 1010.5 hPa WSW 12 km/h 16 km/h 70% 0.00 mm 392.89 W/m2
11:19 32.0 °C 25.0 °C 1010.5 hPa South 6 km/h 12 km/h 69% 0.00 mm 396.51 W/m2
11:24 32.0 °C 25.0 °C 1010.5 hPa West 10 km/h 12 km/h 71% 0.00 mm 389.61 W/m2
11:29 31.0 °C 25.0 °C 1010.5 hPa West 8 km/h 12 km/h 72% 0.00 mm 393.99 W/m2
11:34 31.0 °C 25.0 °C 1010.5 hPa South 10 km/h 12 km/h 72% 0.00 mm 400.52 W/m2
11:39 31.0 °C 25.0 °C 1010.4 hPa WNW 11 km/h 16 km/h 72% 0.00 mm 408.87 W/m2
11:44 31.0 °C 25.0 °C 1010.4 hPa SSW 8 km/h 12 km/h 71% 0.00 mm 405.98 W/m2
11:49 31.0 °C 25.0 °C 1010.2 hPa SSW 7 km/h 12 km/h 70% 0.00 mm 414.32 W/m2
11:54 31.0 °C 25.0 °C 1010.2 hPa SW 10 km/h 16 km/h 70% 0.00 mm 419.02 W/m2
11:59 32.0 °C 25.0 °C 1010.2 hPa South 10 km/h 12 km/h 70% 0.00 mm 414.39 W/m2
12:04 32.0 °C 25.0 °C 1010.0 hPa South 13 km/h 16 km/h 70% 0.00 mm 423.87 W/m2
12:09 31.0 °C 25.0 °C 1010.0 hPa South 13 km/h 16 km/h 71% 0.00 mm 411.13 W/m2
12:14 31.0 °C 25.0 °C 1009.8 hPa SSE 12 km/h 16 km/h 71% 0.00 mm 409.65 W/m2
12:19 32.0 °C 25.0 °C 1009.8 hPa West 13 km/h 20 km/h 71% 0.00 mm 410.65 W/m2
12:24 32.0 °C 25.0 °C 1009.5 hPa SW 8 km/h 12 km/h 70% 0.00 mm 419.27 W/m2
12:29 31.0 °C 25.0 °C 1009.5 hPa WNW 10 km/h 16 km/h 71% 0.00 mm 431.13 W/m2
12:34 31.0 °C 25.0 °C 1009.5 hPa South 9 km/h 12 km/h 71% 0.00 mm 432.01 W/m2
12:39 32.0 °C 25.0 °C 1009.1 hPa SSE 9 km/h 12 km/h 71% 0.00 mm 419.78 W/m2
12:44 32.0 °C 26.0 °C 1009.1 hPa South 10 km/h 12 km/h 69% 0.00 mm 422.18 W/m2
12:49 32.0 °C 26.0 °C 1009.1 hPa SW 8 km/h 12 km/h 69% 0.00 mm 418.29 W/m2
12:54 32.0 °C 26.0 °C 1009.1 hPa SSW 6 km/h 8 km/h 69% 0.00 mm 398.76 W/m2
12:59 32.0 °C 26.0 °C 1009.1 hPa West 9 km/h 12 km/h 70% 0.00 mm 440.85 W/m2
13:04 32.0 °C 26.0 °C 1009.0 hPa NW 15 km/h 20 km/h 72% 0.00 mm 439.56 W/m2
13:09 32.0 °C 26.0 °C 1009.0 hPa NW 10 km/h 12 km/h 72% 0.00 mm 414.91 W/m2
13:14 32.0 °C 26.0 °C 1008.8 hPa WSW 9 km/h 12 km/h 70% 0.00 mm 421.52 W/m2
13:19 32.0 °C 26.0 °C 1008.8 hPa SW 10 km/h 12 km/h 71% 0.00 mm 424.36 W/m2
13:24 33.0 °C 26.0 °C 1008.8 hPa South 10 km/h 16 km/h 70% 0.00 mm 426.85 W/m2
13:29 33.0 °C 26.0 °C 1008.8 hPa SSW 10 km/h 12 km/h 70% 0.00 mm 436.20 W/m2
13:34 32.0 °C 26.0 °C 1008.7 hPa South 10 km/h 12 km/h 70% 0.00 mm 430.79 W/m2
13:39 32.0 °C 26.0 °C 1008.7 hPa South 7 km/h 16 km/h 69% 0.00 mm 446.62 W/m2
13:44 32.0 °C 26.0 °C 1008.5 hPa WSW 9 km/h 12 km/h 70% 0.00 mm 449.12 W/m2
13:49 32.0 °C 26.0 °C 1008.3 hPa West 13 km/h 16 km/h 70% 0.00 mm 424.36 W/m2
13:54 32.0 °C 26.0 °C 1008.3 hPa SSW 11 km/h 16 km/h 71% 0.00 mm 459.93 W/m2
13:59 33.0 °C 26.0 °C 1008.5 hPa West 15 km/h 20 km/h 70% 0.00 mm 467.00 W/m2
14:04 32.0 °C 26.0 °C 1008.1 hPa West 9 km/h 16 km/h 70% 0.00 mm 445.68 W/m2
14:09 33.0 °C 26.0 °C 1008.1 hPa SW 9 km/h 12 km/h 70% 0.00 mm 425.53 W/m2
14:14 33.0 °C 26.0 °C 1008.1 hPa SSW 9 km/h 12 km/h 69% 0.00 mm 429.91 W/m2
14:19 33.0 °C 26.0 °C 1008.1 hPa South 9 km/h 12 km/h 69% 0.00 mm 427.93 W/m2
14:24 33.0 °C 26.0 °C 1008.1 hPa SSW 12 km/h 16 km/h 70% 0.00 mm 427.07 W/m2
14:29 32.0 °C 26.0 °C 1008.1 hPa SSW 11 km/h 16 km/h 71% 0.00 mm 414.67 W/m2
14:34 32.0 °C 26.0 °C 1008.0 hPa SSW 13 km/h 16 km/h 71% 0.00 mm 403.29 W/m2
14:39 32.0 °C 26.0 °C 1007.8 hPa WNW 16 km/h 20 km/h 71% 0.00 mm 396.95 W/m2
14:44 32.0 °C 26.0 °C 1007.8 hPa South 12 km/h 16 km/h 71% 0.00 mm 424.06 W/m2
14:49 32.0 °C 26.0 °C 1007.8 hPa South 10 km/h 12 km/h 71% 0.00 mm 414.07 W/m2
14:54 32.0 °C 26.0 °C 1007.8 hPa SW 11 km/h 16 km/h 70% 0.00 mm 400.50 W/m2
14:59 32.0 °C 26.0 °C 1007.7 hPa South 10 km/h 16 km/h 71% 0.00 mm 396.66 W/m2
15:04 32.0 °C 26.0 °C 1007.8 hPa South 13 km/h 16 km/h 71% 0.00 mm 383.05 W/m2
15:09 32.0 °C 26.0 °C 1007.8 hPa SW 10 km/h 12 km/h 71% 0.00 mm 391.20 W/m2
15:14 32.0 °C 26.0 °C 1007.8 hPa SSE 8 km/h 12 km/h 70% 0.00 mm 394.31 W/m2
15:19 32.0 °C 26.0 °C 1007.7 hPa SSW 15 km/h 20 km/h 71% 0.00 mm 380.66 W/m2
15:24 32.0 °C 26.0 °C 1007.7 hPa SSW 12 km/h 20 km/h 72% 0.00 mm 367.88 W/m2
15:29 32.0 °C 26.0 °C 1007.5 hPa SSW 12 km/h 16 km/h 73% 0.00 mm 352.85 W/m2
15:34 32.0 °C 26.0 °C 1007.5 hPa South 14 km/h 16 km/h 73% 0.00 mm 344.47 W/m2
15:39 32.0 °C 26.0 °C 1007.3 hPa South 12 km/h 16 km/h 73% 0.00 mm 330.33 W/m2
15:44 32.0 °C 26.0 °C 1007.1 hPa South 15 km/h 16 km/h 73% 0.00 mm 325.65 W/m2
15:49 31.0 °C 26.0 °C 1007.1 hPa South 17 km/h 20 km/h 76% 0.00 mm 311.83 W/m2
15:54 31.0 °C 26.0 °C 1007.1 hPa South 16 km/h 20 km/h 76% 0.00 mm 305.86 W/m2
15:59 31.0 °C 26.0 °C 1007.5 hPa South 13 km/h 20 km/h 77% 0.00 mm 316.41 W/m2
16:04 31.0 °C 26.0 °C 1007.5 hPa SSW 15 km/h 20 km/h 77% 0.00 mm 296.08 W/m2
16:09 31.0 °C 26.0 °C 1007.5 hPa South 17 km/h 20 km/h 78% 0.00 mm 304.34 W/m2
16:14 31.0 °C 26.0 °C 1007.5 hPa South 15 km/h 20 km/h 79% 0.00 mm 305.79 W/m2
16:19 30.0 °C 26.0 °C 1007.5 hPa SSW 16 km/h 20 km/h 78% 0.00 mm 291.17 W/m2
16:24 30.0 °C 26.0 °C 1007.5 hPa South 15 km/h 20 km/h 79% 0.00 mm 212.93 W/m2
16:29 30.0 °C 26.0 °C 1007.5 hPa South 15 km/h 20 km/h 79% 0.00 mm 191.40 W/m2
16:34 30.0 °C 26.0 °C 1007.7 hPa South 18 km/h 20 km/h 79% 0.00 mm 211.37 W/m2
16:39 30.0 °C 26.0 °C 1007.8 hPa South 15 km/h 20 km/h 80% 0.00 mm 232.26 W/m2
16:44 30.0 °C 26.0 °C 1007.8 hPa South 14 km/h 16 km/h 80% 0.00 mm 235.93 W/m2
16:49 30.0 °C 26.0 °C 1007.8 hPa South 14 km/h 20 km/h 81% 0.00 mm 186.91 W/m2
16:54 30.0 °C 26.0 °C 1007.8 hPa South 14 km/h 16 km/h 81% 0.00 mm 175.55 W/m2
16:59 30.0 °C 26.0 °C 1008.2 hPa SSE 14 km/h 16 km/h 81% 0.00 mm 75.05 W/m2
17:04 30.0 °C 26.0 °C 1008.2 hPa South 15 km/h 16 km/h 82% 0.00 mm 61.86 W/m2
17:09 29.0 °C 26.0 °C 1008.2 hPa South 15 km/h 16 km/h 82% 0.00 mm 54.15 W/m2
17:14 29.0 °C 26.0 °C 1008.2 hPa South 15 km/h 20 km/h 83% 0.00 mm 47.45 W/m2
17:19 29.0 °C 26.0 °C 1008.2 hPa SSW 14 km/h 20 km/h 84% 0.00 mm 40.08 W/m2
17:24 29.0 °C 26.0 °C 1008.2 hPa South 11 km/h 16 km/h 84% 0.00 mm 34.22 W/m2
17:29 29.0 °C 26.0 °C 1008.2 hPa SSE 5 km/h 12 km/h 84% 0.00 mm 29.13 W/m2
17:34 29.0 °C 26.0 °C 1008.2 hPa South 14 km/h 20 km/h 85% 0.00 mm 27.76 W/m2
17:39 29.0 °C 26.0 °C 1008.2 hPa South 15 km/h 20 km/h 86% 0.00 mm 20.08 W/m2
17:44 29.0 °C 26.0 °C 1008.4 hPa South 14 km/h 20 km/h 86% 0.00 mm 14.16 W/m2
17:49 28.0 °C 26.0 °C 1008.2 hPa South 10 km/h 12 km/h 86% 0.00 mm 8.46 W/m2
17:54 28.0 °C 26.0 °C 1008.5 hPa SSE 11 km/h 16 km/h 86% 0.00 mm 3.54 W/m2
17:59 28.0 °C 26.0 °C 1008.5 hPa South 10 km/h 12 km/h 86% 0.00 mm 0.33 W/m2
18:04 28.0 °C 26.0 °C 1008.5 hPa South 12 km/h 16 km/h 86% 0.00 mm 0.00 W/m2
18:09 28.0 °C 26.0 °C 1008.5 hPa South 15 km/h 16 km/h 87% 0.00 mm 0.00 W/m2
18:14 28.0 °C 26.0 °C 1008.5 hPa South 9 km/h 12 km/h 87% 0.00 mm 0.00 W/m2
18:19 28.0 °C 26.0 °C 1008.9 hPa South 9 km/h 12 km/h 87% 0.00 mm 0.00 W/m2
18:24 28.0 °C 26.0 °C 1008.9 hPa South 6 km/h 12 km/h 87% 0.00 mm 0.00 W/m2
18:29 28.0 °C 26.0 °C 1009.1 hPa South 9 km/h 12 km/h 88% 0.00 mm 0.00 W/m2
18:34 28.0 °C 26.0 °C 1008.9 hPa South 9 km/h 12 km/h 88% 0.00 mm 0.00 W/m2
18:39 28.0 °C 26.0 °C 1009.1 hPa South 12 km/h 16 km/h 88% 0.00 mm 0.00 W/m2
18:44 28.0 °C 26.0 °C 1008.9 hPa South 8 km/h 16 km/h 89% 0.00 mm 0.00 W/m2
18:49 28.0 °C 26.0 °C 1008.9 hPa South 6 km/h 8 km/h 89% 0.00 mm 0.00 W/m2
18:54 28.0 °C 26.0 °C 1009.1 hPa South 7 km/h 8 km/h 89% 0.00 mm 0.00 W/m2
18:59 28.0 °C 26.0 °C 1009.1 hPa SSE 8 km/h 16 km/h 89% 0.00 mm 0.00 W/m2
19:04 28.0 °C 26.0 °C 1009.2 hPa South 10 km/h 16 km/h 89% 0.00 mm 0.00 W/m2
19:09 28.0 °C 26.0 °C 1009.2 hPa South 4 km/h 4 km/h 89% 0.00 mm 0.00 W/m2
19:14 28.0 °C 26.0 °C 1009.2 hPa SSW 6 km/h 8 km/h 89% 0.00 mm 0.00 W/m2
19:19 28.0 °C 26.0 °C 1009.2 hPa SSE 7 km/h 12 km/h 89% 0.00 mm 0.00 W/m2
19:24 28.0 °C 26.0 °C 1009.2 hPa South 6 km/h 8 km/h 89% 0.00 mm 0.00 W/m2
19:29 28.0 °C 26.0 °C 1009.6 hPa South 10 km/h 12 km/h 90% 0.00 mm 0.00 W/m2
19:34 28.0 °C 26.0 °C 1009.6 hPa SSE 8 km/h 12 km/h 90% 0.00 mm 0.00 W/m2
19:39 28.0 °C 26.0 °C 1009.6 hPa SSE 9 km/h 12 km/h 91% 0.00 mm 0.00 W/m2
19:44 28.0 °C 26.0 °C 1009.6 hPa South 9 km/h 12 km/h 91% 0.00 mm 0.00 W/m2
19:49 28.0 °C 26.0 °C 1009.6 hPa SSE 8 km/h 8 km/h 91% 0.00 mm 0.00 W/m2
19:54 28.0 °C 26.0 °C 1009.8 hPa SSE 9 km/h 12 km/h 91% 0.00 mm 0.00 W/m2
19:59 28.0 °C 26.0 °C 1009.9 hPa SE 4 km/h 4 km/h 91% 0.00 mm 0.00 W/m2
20:04 27.0 °C 26.0 °C 1009.9 hPa South 4 km/h 8 km/h 91% 0.00 mm 0.00 W/m2
20:09 27.0 °C 26.0 °C 1009.9 hPa SSE 6 km/h 8 km/h 92% 0.00 mm 0.00 W/m2
20:14 27.0 °C 26.0 °C 1009.9 hPa South 6 km/h 8 km/h 92% 0.00 mm 0.00 W/m2
20:19 27.0 °C 26.0 °C 1009.9 hPa South 5 km/h 8 km/h 91% 0.00 mm 0.00 W/m2
20:24 27.0 °C 26.0 °C 1009.9 hPa South 4 km/h 8 km/h 90% 0.00 mm 0.00 W/m2
20:29 28.0 °C 25.0 °C 1009.9 hPa South 5 km/h 8 km/h 88% 0.00 mm 0.00 W/m2
20:34 28.0 °C 25.0 °C 1009.9 hPa West 4 km/h 4 km/h 87% 0.00 mm 0.00 W/m2
20:39 28.0 °C 25.0 °C 1009.9 hPa SSW 5 km/h 8 km/h 87% 0.00 mm 0.00 W/m2
20:44 28.0 °C 25.0 °C 1009.9 hPa South 5 km/h 8 km/h 87% 0.00 mm 0.00 W/m2
20:49 28.0 °C 25.0 °C 1009.9 hPa South 5 km/h 8 km/h 87% 0.00 mm 0.00 W/m2
20:54 28.0 °C 25.0 °C 1010.2 hPa South 7 km/h 8 km/h 86% 0.00 mm 0.00 W/m2
20:59 28.0 °C 25.0 °C 1010.1 hPa SSE 3 km/h 4 km/h 86% 0.00 mm 0.00 W/m2
21:04 28.0 °C 25.0 °C 1009.9 hPa South 3 km/h 4 km/h 86% 0.00 mm 0.00 W/m2
21:09 28.0 °C 25.0 °C 1010.2 hPa SW 3 km/h 4 km/h 86% 0.00 mm 0.00 W/m2
21:14 28.0 °C 25.0 °C 1009.9 hPa South 3 km/h 4 km/h 87% 0.00 mm 0.00 W/m2
21:19 28.0 °C 25.0 °C 1010.2 hPa South 1 km/h 4 km/h 87% 0.00 mm 0.00 W/m2
21:24 28.0 °C 25.0 °C 1010.2 hPa South 4 km/h 4 km/h 87% 0.00 mm 0.00 W/m2
21:29 28.0 °C 25.0 °C 1010.2 hPa SSW 5 km/h 8 km/h 87% 0.00 mm 0.00 W/m2
21:34 28.0 °C 25.0 °C 1010.2 hPa South 4 km/h 8 km/h 86% 0.00 mm 0.00 W/m2
21:39 28.0 °C 25.0 °C 1010.2 hPa South 3 km/h 4 km/h 86% 0.00 mm 0.00 W/m2
21:44 28.0 °C 25.0 °C 1010.2 hPa SW 3 km/h 4 km/h 86% 0.00 mm 0.00 W/m2
21:49 28.0 °C 26.0 °C 1010.2 hPa South 7 km/h 8 km/h 89% 0.00 mm 0.00 W/m2
21:54 28.0 °C 26.0 °C 1010.2 hPa South 5 km/h 8 km/h 90% 0.00 mm 0.00 W/m2
21:59 28.0 °C 26.0 °C 1010.2 hPa South 6 km/h 8 km/h 91% 0.00 mm 0.00 W/m2
22:04 28.0 °C 26.0 °C 1010.2 hPa South 6 km/h 8 km/h 91% 0.00 mm 0.00 W/m2
22:09 27.0 °C 26.0 °C 1010.2 hPa South 5 km/h 8 km/h 91% 0.00 mm 0.00 W/m2
22:14 27.0 °C 26.0 °C 1010.2 hPa South 6 km/h 12 km/h 91% 0.00 mm 0.00 W/m2
22:19 27.0 °C 26.0 °C 1010.2 hPa South 3 km/h 4 km/h 91% 0.00 mm 0.00 W/m2
22:24 27.0 °C 26.0 °C 1010.2 hPa South 2 km/h 4 km/h 91% 0.00 mm 0.00 W/m2
22:29 27.0 °C 26.0 °C 1010.2 hPa WNW 4 km/h 4 km/h 90% 0.00 mm 0.00 W/m2
22:34 27.0 °C 26.0 °C 1010.2 hPa Calm     90% 0.00 mm 0.00 W/m2
22:39 28.0 °C 26.0 °C 1010.2 hPa South 3 km/h 4 km/h 90% 0.00 mm 0.00 W/m2
22:44 27.0 °C 26.0 °C 1010.2 hPa South 1 km/h 4 km/h 90% 0.00 mm 0.00 W/m2
22:49 27.0 °C 26.0 °C 1010.1 hPa South 3 km/h 4 km/h 90% 0.00 mm 0.00 W/m2
22:54 27.0 °C 26.0 °C 1010.2 hPa South 3 km/h 4 km/h 90% 0.00 mm 0.00 W/m2
22:59 27.0 °C 25.0 °C 1010.2 hPa Calm     89% 0.00 mm 0.00 W/m2
23:04 28.0 °C 26.0 °C 1010.2 hPa Calm     89% 0.00 mm 0.00 W/m2
23:09 28.0 °C 26.0 °C 1010.2 hPa SSE 1 km/h 4 km/h 89% 0.00 mm 0.00 W/m2
23:14 27.0 °C 25.0 °C 1010.2 hPa South 4 km/h 4 km/h 89% 0.00 mm 0.00 W/m2
23:19 27.0 °C 25.0 °C 1010.2 hPa South 2 km/h 4 km/h 89% 0.00 mm 0.00 W/m2
23:24 27.0 °C 25.0 °C 1010.2 hPa Calm     89% 0.00 mm 0.00 W/m2
23:29 27.0 °C 25.0 °C 1010.2 hPa Calm     90% 0.00 mm 0.00 W/m2
23:34 27.0 °C 25.0 °C 1010.2 hPa Calm     90% 0.00 mm 0.00 W/m2
23:39 27.0 °C 25.0 °C 1010.2 hPa NNE 2 km/h 4 km/h 90% 0.00 mm 0.00 W/m2
23:44 27.0 °C 25.0 °C 1010.2 hPa NNE 3 km/h 4 km/h 90% 0.00 mm 0.00 W/m2
23:49 27.0 °C 25.0 °C 1010.2 hPa NNE 4 km/h 4 km/h 89% 0.00 mm 0.00 W/m2
23:54 27.0 °C 25.0 °C 1010.2 hPa NNE 10 km/h 12 km/h 89% 0.00 mm 0.00 W/m2
23:59 27.0 °C 25.0 °C 1010.2 hPa NNE 9 km/h 12 km/h 88% 0.00 mm 0.00 W/m2
PIMOHWEATHER Philippines
Compliments of Weather Underground - 2 mb